GW0143 Weather Reports


time (UTC)temp
F
wind
direction
speed
knots
gust
knots
rain 1hr
in
rain 24hr
in
rain mn
in
humidity
%
barometer
mb
20260506032601 34 193 7.8 11.3 0.00 0.03 0.03 89 1012.6
20260506031521 33 204 6.1 8.7 0.00 0.03 0.03 90 1012.7
20260506030537 33 191 8.7 12.2 0.00 0.03 0.03 90 1012.7
20260506025517 33 213 8.7 13.0 0.00 0.04 0.03 90 1011.9
20260506024518 33 210 8.7 12.2 0.00 0.04 0.03 90 1011.7
20260506023518 33 196 10.4 15.6 0.00 0.04 0.03 91 1011.4
20260506022518 33 189 10.4 15.6 0.00 0.04 0.03 91 1011.2
20260506021518 33 188 10.4 13.9 0.00 0.04 0.03 91 1011.5
20260506020519 33 183 11.3 13.9 0.00 0.04 0.03 91 1011.7
20260506015519 33 179 10.4 13.9 0.00 0.04 0.03 91 1011.9
20260506014519 33 185 9.6 13.9 0.00 0.04 0.03 90 1011.5
20260506013519 34 209 7.0 10.4 0.00 0.04 0.03 90 1011.6
20260506012519 34 206 7.8 12.2 0.00 0.04 0.03 90 1011.5
20260506011540 34 211 7.8 11.3 0.00 0.04 0.03 90 1011.1
20260506010520 34 206 9.6 13.0 0.00 0.04 0.03 91 1010.8
20260506005540 34 203 9.6 13.0 0.00 0.04 0.03 90 1010.9
20260506004517 34 191 7.0 9.6 0.00 0.04 0.03 90 1011.0
20260506003517 34 191 7.0 10.4 0.00 0.04 0.03 91 1011.1
20260506002520 34 179 6.1 8.7 0.00 0.04 0.03 91 1011.1
20260506001541 34 192 4.3 6.1 0.00 0.04 0.03 91 1011.3
20260506000530 34 232 1.7 2.6 0.00 0.04 0.03 90 1011.5
20260505235530 34 208 0.0 0.9 0.00 0.04 0.03 90 1011.4
20260505234530 34 13 0.0 0.9 0.02 0.04 0.03 90 1011.3
20260505233530 34 360 1.7 1.7 0.02 0.04 0.03 90 1011.4
20260505232531 34 352 1.7 2.6 0.02 0.04 0.03 91 1011.4
20260505231551 33 17 1.7 2.6 0.02 0.04 0.03 92 1011.3
20260505230522 32 358 3.5 4.3 0.02 0.04 0.03 92 1011.4
20260505225522 32 350 5.2 7.8 0.02 0.04 0.03 91 1011.3
20260505224543 32 337 4.3 6.1 0.01 0.02 0.02 91 1011.3
20260505223532 33 324 2.6 3.5 0.01 0.02 0.02 90 1011.0
20260505222523 34 355 3.5 6.1 0.01 0.02 0.02 90 1010.7
20260505221532 34 354 2.6 4.3 0.01 0.02 0.01 90 1010.9
20260505220517 35 344 4.3 8.7 0.01 0.01 0.01 89 1011.0
20260505215517 36 324 3.5 6.1 0.01 0.01 0.01 89 1011.1
20260505214518 36 314 4.3 6.1 0.00 0.01 0.01 88 1011.1
20260505213517 36 328 6.1 8.7 0.01 0.01 0.01 87 1011.0
20260505212541 37 328 4.3 8.7 0.00 0.01 0.00 86 1011.2
20260505211518 38 352 7.8 13.0 0.00 0.01 0.00 86 1011.2
20260505210518 38 347 7.0 13.0 0.00 0.01 0.00 85 1011.2
20260505205518 39 329 6.1 10.4 0.00 0.01 0.00 83 1011.3
20260505204518 41 346 8.7 15.6 0.00 0.01 0.00 81 1011.2
20260505203517 43 344 7.0 13.0 0.00 0.00 0.00 73 1011.1
20260505202519 48 243 8.7 13.0 0.00 0.00 0.00 55 1010.9
20260505201520 50 204 11.3 17.4 0.00 0.00 0.00 50 1010.4
20260505200517 50 195 15.6 23.5 0.00 0.00 0.00 49 1009.9
20260505195518 51 185 17.4 22.6 0.00 0.00 0.00 48 1009.8
20260505194517 51 188 18.2 26.1 0.00 0.00 0.00 48 1009.8
20260505193537 50 179 13.0 20.0 0.00 0.00 0.00 49 1010.2
20260505192518 48 179 13.0 20.9 0.00 0.00 0.00 52 1010.5
20260505191519 48 187 12.2 17.4 0.00 0.00 0.00 53 1010.7
20260505190518 49 193 11.3 19.1 0.00 0.00 0.00 52 1010.8
20260505185518 49 206 7.0 11.3 0.00 0.00 0.00 50 1010.9
20260505184518 48 211 7.0 13.9 0.00 0.00 0.00 50 1011.0
20260505183518 47 194 10.4 18.2 0.00 0.00 0.00 53 1011.1
20260505182518 47 185 8.7 14.8 0.00 0.00 0.00 53 1011.2
20260505181519 48 198 7.8 12.2 0.00 0.00 0.00 52 1011.3
20260505180518 49 182 6.1 11.3 0.00 0.00 0.00 50 1011.4
20260505175519 47 170 7.8 12.2 0.00 0.00 0.00 54 1011.5
20260505174519 48 179 6.1 14.8 0.00 0.00 0.00 53 1011.5
20260505173521 47 221 5.2 7.8 0.00 0.00 0.00 55 1011.9
20260505172517 45 219 3.5 7.0 0.00 0.00 0.00 59 1012.2
20260505171519 45 208 4.3 8.7 0.00 0.00 0.00 61 1012.3
20260505170520 45 206 6.1 9.6 0.00 0.00 0.00 62 1012.0
20260505165540 44 173 7.0 11.3 0.00 0.00 0.00 64 1012.0
20260505164517 45 192 6.1 11.3 0.00 0.00 0.00 64 1012.2
20260505163517 44 205 6.1 9.6 0.00 0.00 0.00 64 1012.3
20260505162517 43 199 8.7 13.0 0.00 0.00 0.00 68 1012.4
20260505161521 43 207 7.8 11.3 0.00 0.00 0.00 69 1012.6
20260505160518 43 217 7.0 10.4 0.00 0.00 0.00 70 1012.7
20260505152519 43 224 6.1 11.3 0.00 0.00 0.00 72 1012.7
20260505151559 42 215 7.8 12.2 0.00 0.00 0.00 73 1012.7
20260505150519 42 215 7.0 11.3 0.00 0.00 0.00 74 1012.8
20260505140520 41 212 4.3 7.8 0.00 0.00 0.00 79 1013.2
20260505124522 37 220 6.1 8.7 0.00 0.00 0.00 85 1013.0
20260505123542 37 227 5.2 7.8 0.00 0.00 0.00 85 1012.8
20260505122519 36 220 5.2 8.7 0.00 0.00 0.00 86 1012.8
20260505121522 36 223 3.5 5.2 0.00 0.00 0.00 86 1012.9
20260505120522 36 253 3.5 5.2 0.00 0.00 0.00 86 1012.9
20260505115522 36 210 3.5 5.2 0.00 0.00 0.00 86 1012.7
20260505114527 35 169 1.7 3.5 0.00 0.00 0.00 86 1012.8
20260505113547 36 163 1.7 2.6 0.00 0.00 0.00 86 1012.6
20260505112547 36 163 1.7 3.5 0.00 0.00 0.00 86 1012.5
20260505111517 36 157 2.6 5.2 0.00 0.00 0.00 86 1012.7
20260505110543 37 195 3.5 4.3 0.00 0.00 0.00 85 1012.5
20260505101518 38 165 6.1 7.8 0.00 0.00 0.00 84 1012.8
20260505100558 38 171 6.1 8.7 0.00 0.00 0.00 83 1012.9
20260505095518 38 184 7.8 10.4 0.00 0.00 0.00 83 1013.0
20260505094559 38 185 7.0 9.6 0.00 0.00 0.00 83 1013.2
20260505093519 39 189 7.0 9.6 0.00 0.00 0.00 83 1013.1
20260505092519 39 191 7.8 12.2 0.00 0.00 0.00 82 1013.2
20260505091519 39 188 7.0 9.6 0.00 0.00 0.00 82 1013.1
20260505090519 39 176 7.8 11.3 0.00 0.00 0.00 82 1013.1
20260505085520 39 186 8.7 11.3 0.00 0.00 0.00 81 1013.2
20260505084537 39 188 6.1 8.7 0.00 0.00 0.00 81 1013.3
20260505083520 39 188 6.1 8.7 0.00 0.00 0.00 80 1013.4
20260505082520 40 188 5.2 7.0 0.00 0.00 0.00 79 1013.4
20260505081520 40 178 4.3 6.1 0.00 0.00 0.00 78 1013.4
20260505080521 40 180 4.3 7.0 0.00 0.00 0.00 76 1013.4
20260505075521 41 187 4.3 5.2 0.00 0.00 0.00 75 1013.6
20260505074541 41 197 4.3 5.2 0.00 0.00 0.00 72 1013.6
20260505073521 41 186 5.2 7.8 0.00 0.00 0.00 70 1013.5
20260505072521 41 161 3.5 5.2 0.00 0.00 0.00 70 1013.6
20260505071522 41 118 1.7 4.3 0.00 0.00 0.00 68 1013.6
20260505070519 41 155 3.5 4.3 0.00 0.00 0.00 73 1013.5
20260505065519 41 104 1.7 2.6 0.00 0.00 0.00 75 1013.6
20260505064519 42 162 2.6 3.5 0.00 0.00 0.00 75 1013.5
20260505063519 43 121 2.6 3.5 0.00 0.00 0.00 71 1013.4
20260505062519 43 205 0.0 1.7 0.00 0.00 0.00 72 1013.5
20260505061540 43 182 1.7 2.6 0.00 0.00 0.00 74 1013.3
20260505060540 44 75 1.7 2.6 0.00 0.00 0.00 69 1013.4
20260505055520 44 62 1.7 2.6 0.00 0.00 0.00 67 1013.3
20260505054540 44 345 0.9 2.6 0.00 0.00 0.00 68 1013.5
20260505053517 44 85 2.6 5.2 0.00 0.00 0.00 70 1013.4
20260505052543 43 65 3.5 4.3 0.00 0.00 0.00 72 1013.4
20260505051520 43 154 2.6 3.5 0.00 0.00 0.00 71 1013.4
20260505050518 44 173 3.5 4.3 0.00 0.00 0.00 72 1013.4
20260505041519 47 73 5.2 7.8 0.00 0.00 0.00 64 1013.0
20260505040522 47 101 2.6 3.5 0.00 0.00 0.00 62 1013.0
20260505035519 47 79 2.6 6.1 0.00 0.00 0.00 61 1013.0
20260505034519 48 79 3.5 6.1 0.00 0.00 0.00 60 1012.9
20260505033519 48 68 4.3 8.7 0.00 0.00 0.00 58 1012.8